Weather History for Miami, FL

Change the Weather History Date:

Tuesday, December 10, 2013

  Actual Average Record
Temperature  
Mean Temperature 78 °F 71 °F  
Max Temperature 83 °F 79 °F 89 °F (2009)
Min Temperature 73 °F 64 °F 37 °F (1917)
Degree Days  
Heating Degree Days 0 1  
Month to date heating degree days 0 6  
Since 1 July heating degree days 2 9  
Cooling Degree Days 13 7  
Month to date cooling degree days 105 75  
Year to date cooling degree days 4646 4447  
Growing Degree Days 28 (Base 50)    
Moisture  
Dew Point 70 °F    
Average Humidity 76    
Maximum Humidity 87    
Minimum Humidity 65    
Precipitation  
Precipitation 0.00 in 0.07 in 5.06 in (2000)
Month to date precipitation 0.40 0.70  
Year to date precipitation 66.15 60.56  
Snow  
Snow 0.00 in - - ()
Month to date snowfall 0.0  
Since 1 July snowfall 0.0  
Snow Depth 0.00 in    
Sea Level Pressure  
Sea Level Pressure 30.14 in    
Wind  
Wind Speed 6 mph (ESE)    
Max Wind Speed 14 mph    
Max Gust Speed 18 mph    
Visibility 10 miles    
Events      
T = Trace of Precipitation, MM = Missing Value Source: NWS Daily Summary

Daily Weather History Graph

Daily Weather History Graph

Search for Another Location

Airport:

Trip Planner

Search our weather history database for the weather conditions in past years. The results will help you decide how hot, cold, wet, or windy it might be!

Date:

Astronomy

Dec. 10, 2013 Rise Set
Actual Time 6:57 AM EST 5:31 PM EST
Civil Twilight 6:32 AM EST 5:56 PM EST
Nautical Twilight 6:03 AM EST 6:24 PM EST
Astronomical Twilight 5:35 AM EST 6:53 PM EST
Moon 1:01 PM EST (12/10) 12:47 AM EST (12/10)
Length of Visible Light 11h 24m
Length of Day
10h 33m
First Quarter, 61% of the Moon is Illuminated
Dec 10
First Quarter
Dec 17
Full
Dec 25
Last Quarter
Jan 1
New
Jan 7
First Quarter

Hourly Weather History & Observations

Time (EST) Temp. Heat Index Dew Point Humidity Pressure Visibility Wind Dir Wind Speed Gust Speed Precip Events Conditions
12:53 AM 75.9 °F - 69.1 °F 79% 30.13 in 10.0 mi ESE 6.9 mph - N/A   Mostly Cloudy
1:53 AM 75.9 °F - 69.1 °F 79% 30.12 in 10.0 mi ESE 5.8 mph - N/A   Mostly Cloudy
2:53 AM 75.0 °F - 69.1 °F 82% 30.12 in 10.0 mi ESE 5.8 mph - N/A   Scattered Clouds
3:53 AM 75.0 °F - 69.1 °F 82% 30.12 in 10.0 mi ESE 5.8 mph - N/A   Scattered Clouds
4:53 AM 75.0 °F - 69.1 °F 82% 30.12 in 10.0 mi ESE 4.6 mph - N/A   Partly Cloudy
5:53 AM 75.0 °F - 69.1 °F 82% 30.12 in 10.0 mi ESE 5.8 mph - N/A   Partly Cloudy
6:53 AM 73.9 °F - 69.1 °F 85% 30.14 in 10.0 mi Calm Calm - N/A   Partly Cloudy
7:53 AM 75.9 °F - 70.0 °F 82% 30.16 in 10.0 mi ESE 6.9 mph - N/A   Partly Cloudy
8:53 AM 79.0 °F - 70.0 °F 74% 30.17 in 10.0 mi ESE 10.4 mph - N/A   Scattered Clouds
9:53 AM 81.0 °F 84.4 °F 70.0 °F 69% 30.17 in 10.0 mi SE 11.5 mph - N/A   Scattered Clouds
10:53 AM 82.0 °F 85.9 °F 70.0 °F 67% 30.16 in 10.0 mi ESE 11.5 mph - N/A   Scattered Clouds
10:59 AM 80.6 °F 83.9 °F 69.8 °F 70% 30.16 in 10.0 mi ESE 12.7 mph - N/A   Mostly Cloudy
11:53 AM 81.0 °F 84.4 °F 70.0 °F 69% 30.15 in 10.0 mi SSE 5.8 mph - N/A   Mostly Cloudy
12:49 PM 80.6 °F 83.9 °F 69.8 °F 70% 30.13 in 10.0 mi ESE 6.9 mph - N/A   Mostly Cloudy
12:53 PM 82.0 °F 85.9 °F 70.0 °F 67% 30.13 in 10.0 mi SE 10.4 mph - N/A   Mostly Cloudy
1:53 PM 82.0 °F 85.9 °F 70.0 °F 67% 30.11 in 10.0 mi SE 8.1 mph - N/A   Scattered Clouds
2:53 PM 82.0 °F 85.5 °F 69.1 °F 65% 30.10 in 10.0 mi Variable 5.8 mph - N/A   Scattered Clouds
3:53 PM 81.0 °F 84.1 °F 69.1 °F 67% 30.10 in 10.0 mi SE 6.9 mph - N/A   Scattered Clouds
4:53 PM 80.1 °F 83.2 °F 70.0 °F 71% 30.10 in 10.0 mi SE 9.2 mph 17.3 mph N/A   Scattered Clouds
5:53 PM 78.1 °F - 71.1 °F 79% 30.12 in 10.0 mi ESE 5.8 mph - N/A   Scattered Clouds
6:53 PM 78.1 °F - 71.1 °F 79% 30.12 in 10.0 mi ESE 8.1 mph - N/A   Clear
7:53 PM 78.1 °F - 71.1 °F 79% 30.14 in 10.0 mi ESE 5.8 mph - N/A   Partly Cloudy
8:53 PM 77.0 °F - 71.1 °F 82% 30.15 in 10.0 mi East 5.8 mph - N/A   Clear
9:53 PM 75.9 °F - 71.1 °F 85% 30.17 in 10.0 mi East 4.6 mph - N/A   Clear
10:53 PM 75.0 °F - 71.1 °F 87% 30.16 in 10.0 mi East 3.5 mph - N/A   Partly Cloudy
11:53 PM 73.9 °F - 70.0 °F 87% 30.16 in 9.0 mi Calm Calm - N/A   Partly Cloudy